[[[{"header":{"parameterUnit":"kt","parameterCategory":2,"dx":1,"dy":1,"la1":30.253999710083008,"la2":30.299108505249023,"lo1":-89.0895004272461,"lo2":-89.04439544677734,"nx":28,"ny":28,"refTime":"2022-09-19T21:00:00:Z","depth":"0","parameterNumber":2,"parameterNumberName":"U-component_of_CURRENTS"},"data":[0.4939,0.4971,0.4859,0.4696,0.4585,0.4415,0.4351,0.4434,0.4731,0.5332,0.5937,0.6492,0.7683,0.9,0.9565,0.9554,0.8812,0.8627,0.8332,0.8906,0.8898,0.8889,0.8654,0.8957,0.8956,0.7258,0.7245,0.7236,0.476,0.471,0.4765,0.4701,0.4605,0.4575,0.4611,0.4618,0.4821,0.536,0.5789,0.6939,0.79,0.8815,0.9863,0.9793,0.9435,0.964,0.8855,0.8716,0.9591,0.9396,0.9862,0.9862,0.9863,0.9863,0.9863,0.9863,0.4416,0.4498,0.4495,0.4527,0.4548,0.4506,0.4555,0.4717,0.4999,0.5421,0.5832,0.647,0.7568,0.8906,0.9251,0.9882,0.9507,0.9778,0.9629,0.9144,0.8799,0.9495,1.0292,1.0291,1.0291,1.029,1.029,0,0.4116,0.4104,0.4183,0.4231,0.4321,0.4408,0.4577,0.472,0.5032,0.5378,0.5845,0.6291,0.7375,0.8097,0.9026,0.9459,0.9137,0.9656,0.9347,0.8952,0.8247,0.7995,0.8598,0.9534,0.9529,0.9525,0.9523,0.9521,0.3773,0.3836,0.3914,0.3969,0.4019,0.425,0.4392,0.4657,0.4861,0.5447,0.5641,0.6367,0.6866,0.7952,0.8504,0.9209,0.8801,0.9522,0.9209,0.8772,0.8528,0.7957,0.7749,0.9466,0.9473,0.9479,0.9483,0,0.3643,0.3551,0.3699,0.3817,0.3864,0.4089,0.4342,0.4599,0.4938,0.5371,0.5534,0.6066,0.6717,0.7207,0.7903,0.8077,0.8466,0.8767,0.859,0.8571,0.8509,0.8287,0.861,0.845,0.9312,0.932,0.9326,0,0.341,0.3514,0.3455,0.3529,0.3795,0.386,0.4243,0.45,0.4885,0.5214,0.5535,0.5878,0.6365,0.6858,0.7096,0.7715,0.7828,0.7888,0.7894,0.7802,0.7782,0.7637,0.7406,0.7971,0.7965,0.796,0.7955,0,0.3298,0.3279,0.3372,0.3403,0.3546,0.3731,0.3888,0.4294,0.4544,0.5055,0.5255,0.5844,0.6114,0.6543,0.6824,0.6618,0.7552,0.7279,0.7588,0.7583,0.7747,0.7729,0.8227,0.7948,0.7947,0.7945,0.7943,0,0.3124,0.3099,0.3152,0.3337,0.3369,0.3466,0.3924,0.4093,0.4551,0.4702,0.5098,0.524,0.578,0.5569,0.6323,0.6012,0.623,0.6363,0.6389,0.648,0.6147,0.6741,0.7372,0.7072,0.646,0.6448,0.6438,0,0.3151,0.3069,0.301,0.3123,0.3147,0.325,0.3472,0.3695,0.3878,0.4196,0.4486,0.4788,0.4722,0.4868,0.5185,0.5416,0.5774,0.5321,0.5881,0.5901,0.595,0.6521,0.6529,0.7164,0.6284,0.63,0.6312,0,0.3146,0.2972,0.2981,0.3031,0.3004,0.302,0.3211,0.3435,0.3689,0.3735,0.4117,0.4395,0.4484,0.4625,0.4688,0.4967,0.55,0.4843,0.4855,0.5138,0.6233,0.6288,0.6396,0.5459,0.5478,0.5494,0.6189,0,0.3137,0.3085,0.3022,0.295,0.295,0.2925,0.2982,0.3061,0.3123,0.3225,0.3581,0.3669,0.3957,0.3974,0.3983,0.4508,0.4439,0.4334,0.4277,0.4569,0.4805,0.4902,0.3696,0.3692,0.3689,0.3686,0,0,0.3266,0.3128,0.2986,0.2908,0.2937,0.2867,0.2877,0.2909,0.2891,0.3055,0.2929,0.3314,0.3357,0.3806,0.3883,0.3801,0.3946,0.3811,0.4332,0.4403,0.447,0.4717,0.4813,0.368,0.3678,0.3677,0.3676,0,0.3234,0.3132,0.3022,0.2969,0.2861,0.2854,0.2839,0.2753,0.2816,0.2868,0.298,0.3163,0.3181,0.3418,0.3525,0.3714,0.3794,0.3668,0.3938,0.4286,0.4361,0.4429,0.4685,0.4775,0.3667,0.3668,0.3668,0,0.3294,0.3186,0.3125,0.2966,0.2898,0.2872,0.2825,0.2738,0.2822,0.2783,0.2892,0.2952,0.3066,0.3215,0.3274,0.3208,0.3664,0.3373,0.3391,0.3538,0.3899,0.3981,0.4054,0.3137,0.3136,0.3135,0,0,0.3291,0.3171,0.306,0.296,0.2911,0.2845,0.28,0.278,0.2767,0.2768,0.2801,0.2882,0.3027,0.3064,0.313,0.32,0.3366,0.3314,0.3339,0.336,0.3514,0.3879,0.3955,0.313,0.313,0.313,0,0,0.3304,0.3139,0.3127,0.2993,0.2919,0.2819,0.2767,0.2763,0.2769,0.2795,0.2841,0.2856,0.2997,0.2964,0.29,0.3152,0.3042,0.3053,0.3193,0.3223,0.3247,0.3433,0.2907,0,0,0,0,0,0.3243,0.315,0.314,0.3108,0.2932,0.2817,0.2797,0.2769,0.2799,0.2761,0.2829,0.2833,0.2974,0.2916,0.2918,0.3071,0.307,0.3081,0.3091,0.3289,0.3321,0.3349,0,0,0,0,0,0,0.323,0.3188,0.3143,0.3035,0.2996,0.2819,0.2854,0.2844,0.2803,0.2807,0.2821,0.2833,0.2856,0.2915,0.2916,0.3066,0.2906,0.3075,0.3084,0.3092,0.33,0.3327,0.3349,0,0,0,0,0,0.3219,0.3186,0.2907,0.3037,0.3003,0.2941,0.2858,0.2849,0.282,0.2835,0.2842,0.2806,0.2853,0.286,0.2916,0.3068,0.2906,0.2906,0.308,0.3088,0.3094,0.3313,0,0,0,0,0,0,0.3212,0.3179,0.29,0.289,0.3076,0.2951,0.2929,0.2855,0.2853,0.2854,0.2823,0.2827,0.285,0.2856,0.2861,0.3074,0.2905,0.2905,0.2906,0.3086,0.3091,0.3096,0,0,0,0,0,0,0.3198,0.317,0.2895,0.2945,0.294,0.2961,0.2941,0.2935,0.2859,0.2844,0.2845,0.2826,0.2898,0.2853,0.2857,0.2843,0.2904,0.2905,0.2905,0.2905,0.309,0.3095,0,0,0,0,0,0,0.3186,0.3163,0.2947,0.2944,0.2939,0.2821,0.2963,0.2818,0.2794,0.2849,0.2804,0.2808,0.2898,0.2898,0.2854,0.2838,0.2842,0.2904,0.2905,0.2905,0.2905,0,0,0,0,0,0,0,0.3177,0.3335,0.2963,0.2942,0.2939,0.2796,0.2793,0.279,0.2795,0.2799,0.2803,0.2806,0.2901,0.2902,0.2903,0.2833,0,0,0.2904,0.2904,0,0,0,0,0,0,0,0,0.3345,0.3337,0.2962,0.296,0.2958,0.2795,0.2793,0.279,0.2796,0.2799,0.2802,0.2805,0.2902,0.2902,0.2902,0,0,0,0,0,0,0,0,0,0,0,0,0,0,0,0.2962,0.2961,0,0.2795,0.2793,0.2791,0.2796,0.2799,0.2801,0.2804,0.2902,0.2902,0.2902,0,0,0,0,0,0,0,0,0,0,0,0,0,0,0,0,0,0,0,0,0,0,0,0,0,0,0,0,0,0,0,0,0,0,0,0,0,0,0,0,0,0,0,0,0,0,0,0,0,0,0,0,0,0,0,0,0,0,0,0,0,0,0,0,0,0,0,0,0]}],[{"header":{"parameterUnit":"kt","parameterCategory":2,"dx":1,"dy":1,"la1":30.253999710083008,"la2":30.299108505249023,"lo1":-89.0895004272461,"lo2":-89.04439544677734,"nx":28,"ny":28,"refTime":"2022-09-19T21:00:00:Z","depth":"0","parameterNumber":3,"parameterNumberName":"V-component_of_CURRENTS"},"data":[0.0799,0.12,0.1388,0.2045,0.2412,0.2943,0.3252,0.3642,0.407,0.4713,0.5149,0.5499,0.5284,0.2474,0.0449,-0.0114,-0.0987,-0.1063,-0.171,-0.0832,-0.0776,-0.0722,-0.0771,-0.129,-0.1292,-0.2722,-0.2736,-0.2747,0.0618,0.089,0.1322,0.1896,0.2304,0.253,0.3155,0.3462,0.3914,0.4406,0.4679,0.4887,0.4013,0.3146,0.1789,0.0767,0.0317,0.0159,-0.0066,-0.0326,0.0908,0.093,0.0766,0.0766,0.0767,0.0767,0.0768,0.0768,0.0355,0.0628,0.1046,0.1532,0.198,0.2478,0.2847,0.3312,0.3801,0.4274,0.4359,0.4582,0.4148,0.3243,0.2504,0.1408,0.1229,0.1024,0.0702,0.0556,0.0232,0.1577,0.1513,0.1511,0.1509,0.1508,0.1506,0,0.0193,0.0355,0.074,0.1257,0.169,0.2197,0.2731,0.3027,0.3515,0.3813,0.4125,0.4206,0.3806,0.34,0.2653,0.2178,0.1298,0.1609,0.1092,0.0868,0.067,0.0238,0.1557,0.1653,0.1652,0.1651,0.165,0.165,-0.0061,0.0193,0.0794,0.1078,0.1355,0.1879,0.2256,0.2714,0.3069,0.3515,0.371,0.3712,0.3783,0.3185,0.2567,0.1975,0.1452,0.1606,0.1489,0.1009,0.0565,0.0371,0.0089,0.1636,0.1637,0.1639,0.164,0,-0.0172,0.0077,0.0576,0.113,0.1324,0.1689,0.2293,0.2648,0.2949,0.3362,0.3454,0.3587,0.3412,0.3055,0.2592,0.2186,0.1513,0.1582,0.1775,0.1668,0.0938,0.0633,0.0296,-0.0047,0.1269,0.1267,0.1266,0,-0.026,0.0075,0.0495,0.0741,0.1262,0.1559,0.2081,0.2367,0.2746,0.3084,0.3121,0.3307,0.2973,0.2805,0.2391,0.1971,0.2036,0.1526,0.1389,0.153,0.153,0.1038,0.072,0.1546,0.1547,0.1548,0.1549,0,-0.0457,0.0034,0.0427,0.0608,0.1151,0.1414,0.1699,0.2091,0.2373,0.2682,0.2843,0.2914,0.2907,0.2628,0.2221,0.2132,0.1903,0.1708,0.1397,0.1384,0.1433,0.1421,0.1169,0.1551,0.1551,0.1552,0.1552,0,-0.0522,-0.0254,0.0186,0.0734,0.0852,0.1116,0.1641,0.19,0.2215,0.2327,0.2484,0.2456,0.2535,0.2247,0.2067,0.2065,0.1777,0.1558,0.1544,0.1419,0.1154,0.1181,0.14,0.0923,0.1256,0.1255,0.1255,0,-0.0665,-0.0293,-0.0158,0.0295,0.055,0.0725,0.1029,0.1292,0.1459,0.1722,0.1723,0.1937,0.1752,0.182,0.1769,0.1592,0.1541,0.155,0.12,0.1192,0.1118,0.1324,0.1486,0.1382,0.1244,0.1245,0.1246,0,-0.0818,-0.0478,-0.0442,-0.0199,0.0061,0.0219,0.0503,0.0815,0.1055,0.1124,0.1423,0.1554,0.1504,0.1575,0.1524,0.1478,0.1502,0.1267,0.1257,0.1199,0.1365,0.1307,0.1307,0.1367,0.137,0.1373,0.1237,0,-0.0719,-0.0562,-0.0512,-0.0278,-0.0141,0.0017,0.0186,0.0327,0.0404,0.0528,0.0779,0.0792,0.0983,0.0974,0.0961,0.1153,0.1028,0.0907,0.0786,0.0969,0.0874,0.0883,0.0705,0.07,0.0696,0.0692,0,0,-0.0847,-0.0702,-0.0717,-0.057,-0.0418,-0.0414,-0.0209,-0.0117,0.0052,0.0185,0.0093,0.0389,0.0395,0.0698,0.0783,0.0741,0.0657,0.0753,0.0877,0.0898,0.0917,0.084,0.0853,0.0684,0.0682,0.0681,0.068,0,-0.0823,-0.0819,-0.0752,-0.0643,-0.0533,-0.0443,-0.0418,-0.0299,-0.0216,-0.0017,0.0007,0.0112,0.0256,0.0376,0.0443,0.0664,0.0516,0.0648,0.0889,0.0839,0.0866,0.0889,0.0819,0.0834,0.0669,0.0669,0.067,0,-0.0846,-0.0792,-0.0775,-0.0674,-0.0619,-0.046,-0.0535,-0.0461,-0.0284,-0.0352,-0.0121,-0.0104,-0.0033,0.0155,0.0219,0.0154,0.0365,0.0324,0.0346,0.0415,0.0356,0.0388,0.0418,0.004,0.0038,0.0037,0,0,-0.0825,-0.0789,-0.0694,-0.0664,-0.0629,-0.0557,-0.052,-0.047,-0.0385,-0.035,-0.0279,-0.0204,-0.0088,-0.0032,0.0044,0.0176,0.0102,0.0256,0.0285,0.031,0.0391,0.0341,0.0372,0.0032,0.0032,0.0032,0,0,-0.0815,-0.0729,-0.0705,-0.0673,-0.0585,-0.0501,-0.0478,-0.045,-0.0361,-0.0358,-0.032,-0.03,-0.0141,-0.0164,-0.0228,0.0024,-0.011,-0.0096,0.0079,0.0115,0.0143,0.0233,-0.0286,0,0,0,0,0,-0.0747,-0.0739,-0.0717,-0.0702,-0.0608,-0.0511,-0.0495,-0.0448,-0.0469,-0.0429,-0.0347,-0.0394,-0.0161,-0.0217,-0.0206,-0.0082,-0.0033,-0.0021,-0.001,0.0243,0.0281,0.0314,0,0,0,0,0,0,-0.0741,-0.0724,-0.0717,-0.0638,-0.0616,-0.0513,-0.0521,-0.0507,-0.047,-0.0466,-0.0401,-0.0392,-0.0359,-0.0226,-0.0215,-0.0095,-0.029,-0.0028,-0.0018,-0.001,0.0256,0.0287,0.0314,0,0,0,0,0,-0.0736,-0.0722,-0.0587,-0.0637,-0.0618,-0.0547,-0.0522,-0.051,-0.048,-0.042,-0.0409,-0.0446,-0.036,-0.0347,-0.022,-0.0098,-0.0298,-0.0294,-0.0022,-0.0014,-0.0007,0.0271,0,0,0,0,0,0,-0.0732,-0.0706,-0.0582,-0.0573,-0.0646,-0.055,-0.0535,-0.0513,-0.0436,-0.0424,-0.0464,-0.0462,-0.036,-0.035,-0.0341,-0.0094,-0.0304,-0.03,-0.0297,-0.0016,-0.001,-0.0005,0,0,0,0,0,0,-0.0713,-0.07,-0.0578,-0.0591,-0.0584,-0.0553,-0.054,-0.0495,-0.0436,-0.0484,-0.048,-0.0464,-0.0381,-0.0352,-0.0345,-0.0276,-0.0309,-0.0305,-0.0302,-0.0301,-0.0011,-0.0006,0,0,0,0,0,0,-0.0706,-0.0694,-0.0593,-0.0587,-0.0581,-0.0482,-0.0513,-0.0424,-0.0434,-0.0489,-0.0435,-0.0435,-0.0384,-0.0375,-0.0348,-0.0282,-0.0277,-0.0309,-0.0306,-0.0304,-0.0303,0,0,0,0,0,0,0,-0.0701,-0.0796,-0.0632,-0.0584,-0.0578,-0.0495,-0.0493,-0.049,-0.0434,-0.0434,-0.0435,-0.0435,-0.0332,-0.0328,-0.0324,-0.0287,0,0,-0.031,-0.0308,0,0,0,0,0,0,0,0,-0.0799,-0.0796,-0.0632,-0.063,-0.0629,-0.0495,-0.0493,-0.0491,-0.0434,-0.0434,-0.0435,-0.0435,-0.0331,-0.0328,-0.0324,0,0,0,0,0,0,0,0,0,0,0,0,0,0,0,-0.0632,-0.063,0,-0.0494,-0.0493,-0.0491,-0.0434,-0.0434,-0.0435,-0.0435,-0.033,-0.0327,-0.0324,0,0,0,0,0,0,0,0,0,0,0,0,0,0,0,0,0,0,0,0,0,0,0,0,0,0,0,0,0,0,0,0,0,0,0,0,0,0,0,0,0,0,0,0,0,0,0,0,0,0,0,0,0,0,0,0,0,0,0,0,0,0,0,0,0,0,0,0,0]}]],[[{"header":{"parameterUnit":"kt","parameterCategory":2,"dx":1,"dy":1,"la1":30.253999710083008,"la2":30.299108505249023,"lo1":-89.0895004272461,"lo2":-89.04439544677734,"nx":28,"ny":28,"refTime":"2022-09-19T21:00:00:Z","depth":"2","parameterNumber":2,"parameterNumberName":"U-component_of_CURRENTS"},"data":[0.3682,0.3735,0.3811,0.3927,0.4058,0.4129,0.4178,0.405,0.4032,0.3651,0.3487,0.3512,0.3818,0.3141,0.3035,0.2864,0.3251,0.2718,0.4008,0.4088,0.4189,0.4415,0.4006,0,0,0,0,0,0.3757,0.384,0.3952,0.409,0.4193,0.436,0.4542,0.4509,0.4553,0.4607,0.462,0.4047,0.3878,0.4083,0.3669,0.3585,0.3548,0.3548,0.3525,0.3636,0.3738,0.34,0.2628,0.2625,0.2622,0.2619,0,0,0.3876,0.3906,0.4007,0.4155,0.4313,0.4455,0.4539,0.4741,0.4936,0.5062,0.5328,0.5278,0.5308,0.4905,0.4825,0.4722,0.5052,0.4868,0.4911,0.4968,0.4687,0.4418,0.4257,0.4264,0.427,0.4276,0.4281,0,0.3932,0.3996,0.4063,0.4216,0.4359,0.4531,0.4778,0.4914,0.5282,0.5488,0.5757,0.5893,0.6028,0.5779,0.5756,0.5676,0.5855,0.5634,0.6647,0.5242,0.498,0.4923,0.494,0.4978,0.499,0.4999,0.5005,0.501,0.399,0.4028,0.4191,0.4261,0.4337,0.4541,0.4705,0.5022,0.523,0.5672,0.58,0.6142,0.6271,0.6536,0.6384,0.6429,0.6712,0.592,0.5654,0.6301,0.6248,0.6217,0.6186,0.5138,0.5122,0.5108,0.5098,0,0.3999,0.4079,0.4173,0.4332,0.4406,0.4521,0.4829,0.5021,0.5324,0.5634,0.5757,0.6088,0.6347,0.6521,0.6839,0.6684,0.6806,0.6744,0.6047,0.5933,0.6256,0.6214,0.6545,0.6536,0.6528,0.6521,0.6516,0,0.4027,0.4103,0.4216,0.4261,0.4412,0.4541,0.479,0.496,0.5276,0.5508,0.5735,0.5938,0.6202,0.6409,0.6475,0.6524,0.6805,0.641,0.6387,0.5872,0.5788,0.6543,0.6502,0.6876,0.6873,0.6871,0.6869,0,0.4012,0.4132,0.4214,0.4257,0.4423,0.4512,0.4637,0.4899,0.5066,0.5417,0.5583,0.5872,0.6034,0.6236,0.6311,0.6239,0.6662,0.6576,0.6322,0.6293,0.5898,0.5814,0.6867,0.6867,0.6866,0.6865,0.6864,0,0.4029,0.4084,0.4183,0.4333,0.4379,0.4458,0.4695,0.4811,0.5085,0.5204,0.5417,0.5524,0.5767,0.5668,0.6017,0.5889,0.5968,0.6038,0.6051,0.5762,0.5588,0.5323,0.536,0.607,0.6064,0.6058,0.6052,0,0.399,0.4082,0.4142,0.4247,0.4311,0.4406,0.4514,0.4651,0.478,0.4978,0.5078,0.5261,0.5173,0.5278,0.5421,0.5563,0.5711,0.5488,0.5846,0.5856,0.556,0.5698,0.5118,0.5298,0.5976,0.5984,0.5989,0,0.3964,0.4076,0.4093,0.4156,0.427,0.4324,0.4413,0.4562,0.4712,0.4757,0.4964,0.5003,0.5096,0.514,0.516,0.5317,0.5567,0.5305,0.5315,0.5444,0.5991,0.563,0.5647,0.5624,0.5634,0.5642,0.5929,0,0.3982,0.405,0.407,0.4187,0.4239,0.4295,0.4395,0.445,0.451,0.4607,0.4749,0.4779,0.4913,0.4883,0.4873,0.5105,0.5088,0.5078,0.5115,0.5214,0.5304,0.5352,0.4773,0.4772,0.4771,0.4771,0,0,0.3955,0.4041,0.4104,0.4157,0.4219,0.4298,0.4362,0.4412,0.4506,0.4584,0.4541,0.4703,0.4701,0.4855,0.4853,0.481,0.4912,0.4863,0.5101,0.5137,0.5171,0.5267,0.5313,0.4769,0.4769,0.4769,0.4769,0,0.3978,0.4048,0.4093,0.4147,0.4246,0.4306,0.4327,0.4426,0.4474,0.4525,0.4576,0.464,0.4653,0.4731,0.4761,0.4788,0.4882,0.4757,0.4876,0.5085,0.5122,0.5155,0.5256,0.5298,0.4767,0.4767,0.4767,0,0.3997,0.4073,0.411,0.4215,0.4277,0.4338,0.4385,0.444,0.4499,0.4525,0.4593,0.4614,0.4646,0.4684,0.4701,0.4699,0.488,0.474,0.4743,0.4831,0.5052,0.509,0.5124,0.4707,0.4707,0.4707,0,0,0.4016,0.4071,0.4187,0.4233,0.4269,0.4364,0.4398,0.445,0.4505,0.4525,0.4569,0.4607,0.4642,0.4664,0.468,0.4709,0.4818,0.4736,0.4738,0.4741,0.4828,0.5048,0.5083,0.4707,0.4707,0.4707,0,0,0.4023,0.4159,0.4215,0.4274,0.4342,0.4433,0.4448,0.4503,0.4539,0.4553,0.4599,0.4608,0.4643,0.4647,0.4646,0.4703,0.4686,0.4687,0.4721,0.4724,0.4727,0.4833,0.4676,0,0,0,0,0,0.4129,0.4145,0.4196,0.4222,0.4358,0.4417,0.4431,0.4497,0.4539,0.4538,0.4581,0.4605,0.4653,0.4652,0.4659,0.4699,0.471,0.4709,0.4709,0.4757,0.4761,0.4764,0,0,0,0,0,0,0.414,0.4172,0.4195,0.4292,0.4324,0.4417,0.4468,0.4485,0.4539,0.4546,0.4597,0.4605,0.4627,0.4651,0.4657,0.4695,0.4674,0.471,0.4709,0.4709,0.4758,0.4761,0.4764,0,0,0,0,0,0.415,0.4175,0.4383,0.4291,0.4318,0.4416,0.4467,0.4482,0.452,0.4572,0.4583,0.4573,0.4625,0.4633,0.4655,0.4692,0.4671,0.4672,0.4709,0.4709,0.4709,0.476,0,0,0,0,0,0,0.4156,0.4168,0.4389,0.4399,0.4298,0.441,0.4432,0.448,0.4543,0.4556,0.4547,0.4551,0.4624,0.463,0.4636,0.4691,0.4668,0.467,0.4671,0.4709,0.4709,0.4708,0,0,0,0,0,0,0.4155,0.4176,0.4394,0.4399,0.441,0.4405,0.4425,0.4442,0.4541,0.4511,0.4519,0.4548,0.4612,0.4628,0.4633,0.4656,0.4665,0.4667,0.4669,0.4669,0.4709,0.4709,0,0,0,0,0,0,0.4165,0.4182,0.4396,0.4404,0.4414,0.4522,0.4418,0.4546,0.4572,0.4505,0.4575,0.4577,0.4609,0.4615,0.463,0.4652,0.4655,0.4665,0.4667,0.4668,0.4668,0,0,0,0,0,0,0,0.4172,0.4047,0.4341,0.4409,0.4417,0.4492,0.4494,0.4496,0.4572,0.4574,0.4575,0.4576,0.4655,0.4657,0.4659,0.4648,0,0,0.4665,0.4666,0,0,0,0,0,0,0,0,0.4041,0.4045,0.4342,0.4344,0.4347,0.4493,0.4494,0.4495,0.4573,0.4574,0.4575,0.4576,0.4655,0.4657,0.4659,0,0,0,0,0,0,0,0,0,0,0,0,0,0,0,0.4342,0.4344,0,0.4493,0.4494,0.4495,0.4573,0.4574,0.4574,0.4575,0.4656,0.4657,0.4659,0,0,0,0,0,0,0,0,0,0,0,0,0,0,0,0,0,0,0,0,0,0,0,0,0,0,0,0,0,0,0,0,0,0,0,0,0,0,0,0,0,0,0,0,0,0,0,0,0,0,0,0,0,0,0,0,0,0,0,0,0,0,0,0,0,0,0,0,0]}],[{"header":{"parameterUnit":"kt","parameterCategory":2,"dx":1,"dy":1,"la1":30.253999710083008,"la2":30.299108505249023,"lo1":-89.0895004272461,"lo2":-89.04439544677734,"nx":28,"ny":28,"refTime":"2022-09-19T21:00:00:Z","depth":"2","parameterNumber":3,"parameterNumberName":"V-component_of_CURRENTS"},"data":[0.0486,0.0881,0.1057,0.1653,0.1911,0.2358,0.2595,0.2911,0.3008,0.2866,0.2557,0.1993,0.1171,0.0439,-0.0309,-0.0726,-0.0735,-0.0781,-0.0781,-0.0505,-0.048,-0.104,-0.0947,0,0,0,0,0,0.0303,0.0534,0.0864,0.1291,0.1643,0.173,0.2182,0.2443,0.281,0.2773,0.275,0.1856,0.1093,0.0411,-0.055,-0.1171,-0.114,-0.1279,-0.1134,-0.112,-0.1106,-0.1054,-0.1253,-0.1253,-0.1253,-0.1253,0,0,0.0022,0.0231,0.0511,0.0855,0.1163,0.1532,0.1809,0.2111,0.2464,0.265,0.2529,0.2317,0.1588,0.0357,-0.0226,-0.0831,-0.0884,-0.116,-0.1147,-0.1134,-0.1092,-0.1127,-0.1296,-0.1297,-0.1297,-0.1297,-0.1297,0,-0.0144,-0.005,0.0155,0.0505,0.0777,0.1104,0.1428,0.1648,0.1884,0.2081,0.2293,0.2221,0.1596,0.0948,0.004,-0.038,-0.0701,-0.088,-0.0741,-0.0811,-0.0843,-0.0924,-0.0917,-0.096,-0.0958,-0.0957,-0.0956,-0.0956,-0.0302,-0.0202,0.0074,0.0258,0.0353,0.0643,0.088,0.1071,0.1341,0.1565,0.1732,0.1605,0.1524,0.0905,0.0254,-0.0393,-0.0431,-0.0813,-0.0911,-0.0846,-0.0932,-0.0926,-0.0922,-0.0937,-0.094,-0.0942,-0.0943,0,-0.0334,-0.0308,-0.0106,0.008,0.0162,0.0363,0.0682,0.093,0.104,0.1347,0.1387,0.1351,0.1138,0.0747,0.0365,-0.0021,-0.0381,-0.0569,-0.0548,-0.0634,-0.0898,-0.0898,-0.0955,-0.096,-0.0964,-0.0967,-0.097,0,-0.042,-0.031,-0.0213,-0.0141,0.0116,0.0145,0.0452,0.0546,0.0743,0.0987,0.0871,0.1004,0.0669,0.0516,0.0158,-0.0212,-0.0112,-0.0583,-0.0676,-0.0642,-0.0655,-0.0545,-0.0552,-0.0464,-0.0462,-0.046,-0.0459,0,-0.0498,-0.0416,-0.0285,-0.0256,-0.0128,-0.0019,0.009,0.0241,0.0415,0.0533,0.0645,0.0587,0.059,0.0349,0.003,-0.002,-0.0186,-0.0303,-0.0638,-0.0653,-0.0661,-0.068,-0.0457,-0.0457,-0.0457,-0.0456,-0.0455,0,-0.0613,-0.0559,-0.0459,-0.029,-0.0266,-0.0208,0.0025,0.0101,0.0215,0.0253,0.0302,0.0245,0.0249,0.006,-0.0098,-0.0067,-0.0289,-0.0423,-0.0435,-0.0542,-0.0705,-0.0807,-0.0804,-0.0672,-0.0672,-0.0672,-0.0672,0,-0.061,-0.0584,-0.0623,-0.0512,-0.0463,-0.0464,-0.0375,-0.0312,-0.0257,-0.0146,-0.0199,-0.0114,-0.0281,-0.0236,-0.0279,-0.037,-0.0438,-0.0407,-0.0596,-0.0602,-0.0673,-0.0654,-0.0628,-0.08,-0.0674,-0.0673,-0.0673,0,-0.065,-0.0699,-0.07,-0.0638,-0.0685,-0.0663,-0.0611,-0.053,-0.0401,-0.0492,-0.0332,-0.0378,-0.0401,-0.038,-0.0423,-0.0432,-0.0461,-0.0525,-0.0528,-0.058,-0.0539,-0.065,-0.0661,-0.0484,-0.0481,-0.0479,-0.0674,0,-0.0662,-0.0676,-0.07,-0.0745,-0.0749,-0.0754,-0.0777,-0.076,-0.0757,-0.0741,-0.0668,-0.073,-0.066,-0.0697,-0.0717,-0.0622,-0.0695,-0.0728,-0.0708,-0.0669,-0.0777,-0.0775,-0.0817,-0.0819,-0.082,-0.0822,0,0,-0.0634,-0.0688,-0.0791,-0.0824,-0.0807,-0.0888,-0.0863,-0.0881,-0.0915,-0.085,-0.0925,-0.0867,-0.0893,-0.0763,-0.0762,-0.0817,-0.0857,-0.0725,-0.0714,-0.0702,-0.0691,-0.0787,-0.0784,-0.0824,-0.0825,-0.0825,-0.0826,0,-0.0661,-0.0733,-0.0775,-0.0817,-0.0889,-0.0903,-0.0915,-0.0972,-0.0954,-0.0953,-0.0946,-0.0936,-0.0932,-0.0882,-0.086,-0.0843,-0.0858,-0.0861,-0.0715,-0.0728,-0.0714,-0.0702,-0.0794,-0.079,-0.0829,-0.0829,-0.0829,0,-0.0662,-0.0729,-0.0762,-0.086,-0.0901,-0.0914,-0.0954,-0.0997,-0.0964,-0.0995,-0.0947,-0.0972,-0.0958,-0.0924,-0.0912,-0.0906,-0.0861,-0.0869,-0.0864,-0.079,-0.0802,-0.0787,-0.0774,-0.0931,-0.0931,-0.0931,0,0,-0.0673,-0.0735,-0.0819,-0.0869,-0.0901,-0.0947,-0.097,-0.0983,-0.1003,-0.1002,-0.0988,-0.0974,-0.0956,-0.093,-0.0937,-0.0908,-0.0928,-0.0875,-0.0871,-0.0866,-0.0792,-0.0802,-0.0789,-0.093,-0.093,-0.093,0,0,-0.0669,-0.0777,-0.08,-0.0865,-0.0919,-0.0975,-0.0991,-0.1001,-0.1003,-0.0989,-0.0969,-0.0962,-0.0943,-0.0947,-0.0938,-0.0891,-0.0921,-0.0923,-0.0845,-0.084,-0.0835,-0.0737,-0.09,0,0,0,0,0,-0.0737,-0.0773,-0.0794,-0.0815,-0.0913,-0.0978,-0.0986,-0.0997,-0.0983,-0.0993,-0.0979,-0.0951,-0.0937,-0.0929,-0.0927,-0.0869,-0.0918,-0.092,-0.0922,-0.0821,-0.0815,-0.081,0,0,0,0,0,0,-0.0746,-0.0772,-0.0793,-0.0857,-0.088,-0.0976,-0.0957,-0.096,-0.0981,-0.0978,-0.0958,-0.0951,-0.0932,-0.0928,-0.0926,-0.0871,-0.09,-0.0919,-0.0921,-0.0922,-0.0819,-0.0814,-0.081,0,0,0,0,0,-0.0753,-0.0774,-0.0933,-0.0855,-0.0875,-0.0907,-0.0954,-0.0957,-0.0963,-0.0956,-0.095,-0.097,-0.0934,-0.0929,-0.0927,-0.0871,-0.0901,-0.0901,-0.092,-0.0921,-0.0923,-0.0816,0,0,0,0,0,0,-0.0758,-0.0761,-0.0936,-0.0942,-0.0837,-0.09,-0.0911,-0.0954,-0.0938,-0.0937,-0.0966,-0.0963,-0.0936,-0.0932,-0.0928,-0.0871,-0.0902,-0.0902,-0.0901,-0.0921,-0.0922,-0.0923,0,0,0,0,0,0,-0.075,-0.0765,-0.0939,-0.0916,-0.0918,-0.0893,-0.0904,-0.0904,-0.0935,-0.0946,-0.0946,-0.0965,-0.092,-0.0934,-0.0931,-0.0932,-0.0903,-0.0903,-0.0902,-0.0902,-0.0922,-0.0923,0,0,0,0,0,0,-0.0756,-0.0769,-0.0914,-0.0916,-0.0918,-0.0975,-0.0889,-0.0972,-0.0971,-0.0944,-0.0966,-0.0964,-0.0921,-0.0919,-0.0933,-0.0936,-0.0933,-0.0903,-0.0903,-0.0902,-0.0902,0,0,0,0,0,0,0,-0.0761,-0.0676,-0.0912,-0.0916,-0.0917,-0.0995,-0.0995,-0.0996,-0.097,-0.0968,-0.0966,-0.0965,-0.0906,-0.0906,-0.0905,-0.0939,0,0,-0.0903,-0.0903,0,0,0,0,0,0,0,0,-0.067,-0.0675,-0.0912,-0.0913,-0.0915,-0.0995,-0.0995,-0.0996,-0.097,-0.0968,-0.0967,-0.0965,-0.0906,-0.0906,-0.0905,0,0,0,0,0,0,0,0,0,0,0,0,0,0,0,-0.0912,-0.0913,0,-0.0995,-0.0995,-0.0996,-0.097,-0.0968,-0.0967,-0.0966,-0.0906,-0.0906,-0.0905,0,0,0,0,0,0,0,0,0,0,0,0,0,0,0,0,0,0,0,0,0,0,0,0,0,0,0,0,0,0,0,0,0,0,0,0,0,0,0,0,0,0,0,0,0,0,0,0,0,0,0,0,0,0,0,0,0,0,0,0,0,0,0,0,0,0,0,0,0]}]],[[{"header":{"parameterUnit":"kt","parameterCategory":2,"dx":1,"dy":1,"la1":30.253999710083008,"la2":30.299108505249023,"lo1":-89.0895004272461,"lo2":-89.04439544677734,"nx":28,"ny":28,"refTime":"2022-09-19T21:00:00:Z","depth":"4","parameterNumber":2,"parameterNumberName":"U-component_of_CURRENTS"},"data":[0.0495,0.0601,0.067,0.0814,0.0935,0.1118,0.1264,0.1432,0.1425,0.1691,0.1672,0.1909,0.1885,0.2044,0.1927,0.1939,0.1917,0.2078,0.2074,0.2106,0.2118,0.2128,0.228,0,0,0,0,0,0.0539,0.0605,0.0732,0.0954,0.114,0.1277,0.1512,0.1681,0.1951,0.1891,0.2097,0.2018,0.2035,0.2048,0.1969,0.2092,0.2083,0.1991,0.201,0.2114,0.2126,0.227,0,0,0,0,0,0,0.0605,0.0666,0.0838,0.1069,0.1291,0.1423,0.1616,0.1772,0.1967,0.2269,0.2193,0.2303,0.2408,0.2325,0.2217,0.2178,0.2121,0.2061,0.2075,0.2088,0.2189,0.214,0.1901,0,0,0,0,0,0.0673,0.0789,0.0941,0.1172,0.1403,0.1635,0.1915,0.2006,0.2354,0.26,0.2588,0.2632,0.2505,0.2438,0.2392,0.2241,0.2391,0.2274,0.2279,0.2338,0.2307,0.2249,0.2261,0.2175,0.2177,0.2178,0.2178,0,0.0764,0.0847,0.1161,0.1288,0.1465,0.1806,0.1989,0.2385,0.2509,0.2794,0.2746,0.2866,0.2897,0.2597,0.2604,0.2429,0.2404,0.2308,0.2374,0.2329,0.2265,0.2275,0.2283,0.2189,0.2188,0.2187,0.2186,0,0.0798,0.097,0.1151,0.1465,0.1597,0.1794,0.2198,0.2363,0.2693,0.2845,0.297,0.3098,0.3042,0.2991,0.2863,0.2721,0.2568,0.2476,0.26,0.2533,0.2299,0.2304,0.2205,0.2202,0.2199,0.2196,0.2194,0,0.0887,0.1026,0.1318,0.139,0.1628,0.1844,0.2132,0.2348,0.2618,0.2737,0.2992,0.3033,0.3104,0.3023,0.2937,0.274,0.2786,0.2596,0.2522,0.2679,0.268,0.2581,0.2571,0.2686,0.2688,0.269,0.2692,0,0.0919,0.1138,0.1301,0.1367,0.164,0.1796,0.2001,0.2267,0.2429,0.275,0.2868,0.2968,0.3052,0.3001,0.2945,0.2956,0.28,0.2761,0.257,0.2557,0.2588,0.2575,0.2694,0.2694,0.2695,0.2696,0.2696,0,0.0982,0.1091,0.1268,0.1491,0.1549,0.1716,0.2016,0.2193,0.2411,0.2568,0.2723,0.2815,0.2916,0.2929,0.288,0.2934,0.2863,0.2798,0.2785,0.2643,0.2524,0.2403,0.2554,0.2555,0.2556,0.2556,0.2557,0,0.0973,0.1111,0.1195,0.1393,0.1492,0.1649,0.1819,0.2009,0.2207,0.2371,0.2455,0.2673,0.2697,0.284,0.2833,0.2834,0.2798,0.2854,0.2606,0.2596,0.2506,0.2632,0.2827,0.2566,0.2565,0.2564,0.2563,0,0.0939,0.1106,0.1127,0.1218,0.1395,0.1497,0.1691,0.1888,0.203,0.2201,0.234,0.2571,0.2623,0.2675,0.2719,0.2721,0.2788,0.2706,0.27,0.2574,0.2712,0.2643,0.2629,0.2818,0.282,0.2821,0.257,0,0.0988,0.1067,0.1101,0.1228,0.1336,0.1435,0.1592,0.1732,0.188,0.1979,0.2187,0.2294,0.2428,0.2472,0.253,0.2643,0.2567,0.2547,0.2406,0.2549,0.2412,0.2409,0.2392,0.2388,0.2384,0.2382,0,0,0.0939,0.1001,0.1061,0.1121,0.1206,0.1333,0.1432,0.1548,0.1727,0.18,0.1858,0.2099,0.2154,0.2289,0.2407,0.2405,0.2356,0.236,0.2489,0.2502,0.2513,0.2392,0.2392,0.2375,0.2374,0.2373,0.2372,0,0.0924,0.0968,0.1019,0.1091,0.1219,0.1305,0.1349,0.1482,0.1579,0.1763,0.1817,0.1941,0.2081,0.2132,0.2175,0.2353,0.2232,0.2385,0.2471,0.2461,0.2478,0.2493,0.2378,0.2381,0.2363,0.2364,0.2364,0,0.0896,0.0938,0.0972,0.1069,0.1148,0.125,0.127,0.1388,0.1504,0.1514,0.1696,0.1776,0.1829,0.1973,0.203,0.1951,0.2075,0.2072,0.209,0.2076,0.2056,0.2078,0.2098,0.184,0.1838,0.1837,0,0,0.0883,0.0924,0.1017,0.1069,0.1115,0.1221,0.129,0.1366,0.1469,0.153,0.1598,0.1672,0.1777,0.1812,0.1887,0.1962,0.1875,0.2013,0.2038,0.2058,0.2057,0.2043,0.2065,0.1833,0.1832,0.1832,0,0,0.0881,0.0958,0.0996,0.1046,0.1149,0.1245,0.1317,0.1377,0.1503,0.1534,0.1564,0.1585,0.1747,0.1705,0.1649,0.1831,0.1723,0.1735,0.1867,0.1897,0.1921,0.1912,0.1572,0,0,0,0,0,0.0911,0.0936,0.0969,0.0989,0.1109,0.1214,0.1239,0.135,0.1381,0.1445,0.1546,0.1494,0.1705,0.1655,0.1659,0.174,0.1772,0.1783,0.1793,0.1985,0.2017,0.2044,0,0,0,0,0,0,0.0919,0.0936,0.097,0.1051,0.1082,0.1211,0.1237,0.1267,0.1379,0.1395,0.1482,0.1493,0.1505,0.1648,0.1653,0.1731,0.157,0.1776,0.1785,0.1793,0.1996,0.2022,0.2045,0,0,0,0,0,0.0926,0.094,0.1096,0.1054,0.1081,0.123,0.1238,0.1264,0.1365,0.1408,0.1427,0.1456,0.1502,0.1512,0.165,0.1731,0.1567,0.1569,0.1782,0.1789,0.1796,0.2009,0,0,0,0,0,0,0.0931,0.0966,0.1106,0.112,0.107,0.123,0.1253,0.126,0.1372,0.1394,0.1374,0.1383,0.15,0.1508,0.1515,0.1735,0.1563,0.1566,0.1567,0.1788,0.1793,0.1798,0,0,0,0,0,0,0.0961,0.0976,0.1113,0.1126,0.1143,0.1229,0.1249,0.1262,0.1369,0.133,0.1344,0.1376,0.147,0.1505,0.1511,0.153,0.1561,0.1563,0.1564,0.1565,0.1792,0.1797,0,0,0,0,0,0,0.0971,0.0985,0.1122,0.1135,0.1151,0.1322,0.1241,0.1345,0.1428,0.1321,0.1434,0.1437,0.1464,0.1473,0.1507,0.1523,0.1528,0.1561,0.1562,0.1563,0.1564,0,0,0,0,0,0,0,0.0979,0.0844,0.1024,0.1143,0.1157,0.1259,0.1262,0.1266,0.1428,0.1431,0.1433,0.1436,0.1549,0.1552,0.1554,0.1517,0,0,0.1561,0.1562,0,0,0,0,0,0,0,0,0.0842,0.0843,0.1024,0.1027,0.1031,0.1259,0.1262,0.1265,0.1429,0.1431,0.1433,0.1435,0.155,0.1552,0.1554,0,0,0,0,0,0,0,0,0,0,0,0,0,0,0,0.1024,0.1027,0,0.126,0.1262,0.1264,0.1429,0.1431,0.1432,0.1434,0.155,0.1552,0.1553,0,0,0,0,0,0,0,0,0,0,0,0,0,0,0,0,0,0,0,0,0,0,0,0,0,0,0,0,0,0,0,0,0,0,0,0,0,0,0,0,0,0,0,0,0,0,0,0,0,0,0,0,0,0,0,0,0,0,0,0,0,0,0,0,0,0,0,0,0]}],[{"header":{"parameterUnit":"kt","parameterCategory":2,"dx":1,"dy":1,"la1":30.253999710083008,"la2":30.299108505249023,"lo1":-89.0895004272461,"lo2":-89.04439544677734,"nx":28,"ny":28,"refTime":"2022-09-19T21:00:00:Z","depth":"4","parameterNumber":3,"parameterNumberName":"V-component_of_CURRENTS"},"data":[0.0536,0.0555,0.0575,0.0594,0.0621,0.0655,0.0675,0.0653,0.0589,0.0529,0.0323,0.0242,-0.014,-0.0018,-0.0505,-0.0576,-0.0655,-0.1059,-0.106,-0.1207,-0.1211,-0.1215,-0.1212,0,0,0,0,0,0.0587,0.0591,0.0607,0.0634,0.0689,0.0709,0.0718,0.0715,0.067,0.0562,0.0493,0.0235,-0.0125,-0.0326,-0.0512,-0.0658,-0.0958,-0.0877,-0.0992,-0.121,-0.1215,-0.121,0,0,0,0,0,0,0.065,0.0646,0.0663,0.0698,0.0735,0.074,0.0746,0.0686,0.0635,0.0457,0.0406,0.0079,-0.0118,-0.045,-0.066,-0.086,-0.0908,-0.0927,-0.0946,-0.0954,-0.0907,-0.0726,-0.0704,0,0,0,0,0,0.0676,0.0706,0.0705,0.0739,0.0755,0.0756,0.0732,0.072,0.0589,0.0505,0.0305,0.0069,-0.0211,-0.0549,-0.076,-0.0965,-0.1188,-0.1202,-0.1206,-0.1257,-0.1146,-0.113,-0.112,-0.1233,-0.1234,-0.1234,-0.1234,0,0.0716,0.0724,0.0731,0.0739,0.0738,0.0727,0.0709,0.0614,0.0543,0.0336,0.0261,-0.0015,-0.0232,-0.058,-0.0877,-0.1147,-0.1187,-0.1214,-0.1267,-0.1152,-0.1138,-0.1126,-0.1114,-0.1238,-0.1238,-0.1238,-0.1237,0,0.0727,0.0737,0.0721,0.0685,0.069,0.0666,0.0614,0.0544,0.0409,0.0274,0.0201,-0.0105,-0.0374,-0.0631,-0.0954,-0.1037,-0.1232,-0.1257,-0.1169,-0.1159,-0.1129,-0.1115,-0.1245,-0.1243,-0.1242,-0.1241,-0.124,0,0.0716,0.0715,0.0717,0.0703,0.0679,0.0602,0.0535,0.0423,0.0278,0.0175,-0.0066,-0.0201,-0.0536,-0.0725,-0.0902,-0.1083,-0.1147,-0.1203,-0.1202,-0.1207,-0.1192,-0.1224,-0.121,-0.1349,-0.135,-0.135,-0.135,0,0.0734,0.0695,0.0691,0.0667,0.059,0.0556,0.0504,0.034,0.0263,0.0027,-0.0069,-0.0345,-0.0485,-0.0689,-0.0913,-0.0919,-0.1175,-0.1186,-0.1179,-0.1168,-0.1219,-0.1205,-0.135,-0.135,-0.135,-0.135,-0.135,0,0.0716,0.0701,0.0684,0.0611,0.0588,0.0562,0.0426,0.0349,0.0152,0.004,-0.0158,-0.032,-0.0548,-0.0598,-0.0881,-0.0844,-0.094,-0.1042,-0.1044,-0.1007,-0.0951,-0.0896,-0.0989,-0.0987,-0.0985,-0.0983,-0.0981,0,0.0718,0.0695,0.0661,0.0623,0.0594,0.0508,0.0444,0.0327,0.0203,0.0061,-0.0137,-0.0323,-0.0415,-0.0535,-0.0662,-0.0861,-0.0921,-0.0859,-0.0979,-0.098,-0.0914,-0.1,-0.0967,-0.0953,-0.0956,-0.0959,-0.0961,0,0.0713,0.0679,0.0676,0.0642,0.0555,0.0518,0.0449,0.0327,0.0246,0.0104,-0.0041,-0.03,-0.0407,-0.0509,-0.0634,-0.074,-0.0865,-0.0783,-0.0789,-0.076,-0.1031,-0.0967,-0.0976,-0.0943,-0.0948,-0.0952,-0.0941,0,0.0667,0.0655,0.0657,0.0593,0.0551,0.0518,0.0424,0.0366,0.0279,0.0169,-0.0034,-0.0199,-0.0388,-0.0453,-0.0546,-0.0721,-0.0691,-0.0729,-0.0697,-0.0763,-0.0738,-0.0753,-0.0565,-0.0565,-0.0565,-0.0564,0,0,0.0641,0.0631,0.0596,0.0562,0.052,0.0446,0.0411,0.0342,0.0211,0.0135,0.0109,-0.0202,-0.0303,-0.0498,-0.056,-0.0577,-0.0606,-0.0567,-0.0713,-0.0729,-0.0744,-0.0726,-0.0741,-0.0564,-0.0564,-0.0564,-0.0564,0,0.0611,0.0598,0.0604,0.0554,0.0477,0.0414,0.0412,0.03,0.0231,0.0132,-0.0003,-0.0143,-0.0276,-0.0412,-0.0494,-0.0562,-0.0596,-0.0592,-0.0597,-0.0707,-0.0723,-0.0738,-0.0722,-0.0736,-0.0563,-0.0563,-0.0563,0,0.0561,0.0519,0.0531,0.0466,0.0408,0.0365,0.0292,0.0245,0.0188,0.0078,-0.0016,-0.0143,-0.0274,-0.039,-0.0437,-0.0408,-0.0552,-0.0506,-0.0508,-0.0528,-0.0642,-0.066,-0.0676,-0.0474,-0.0473,-0.0473,0,0,0.052,0.0529,0.0445,0.0449,0.0425,0.0321,0.0284,0.0216,0.0123,0.0078,-0.0013,-0.0119,-0.025,-0.0285,-0.0393,-0.0443,-0.0473,-0.0493,-0.0498,-0.0501,-0.0522,-0.0636,-0.0653,-0.0471,-0.0471,-0.0471,0,0,0.0491,0.0432,0.04,0.0402,0.0337,0.022,0.0205,0.0143,0.0048,0.003,-0.008,-0.0108,-0.0224,-0.0246,-0.0215,-0.0388,-0.0372,-0.0379,-0.0368,-0.0374,-0.0379,-0.0389,-0.0278,0,0,0,0,0,0.0425,0.0449,0.0422,0.0412,0.0311,0.0247,0.0226,0.0126,0.0088,0.0073,-0.0033,-0.0071,-0.0274,-0.0248,-0.0266,-0.0322,-0.045,-0.0454,-0.0457,-0.0461,-0.0467,-0.0472,0,0,0,0,0,0,0.0421,0.041,0.042,0.0317,0.0293,0.0245,0.0163,0.0134,0.0086,0.0072,-0.0053,-0.0074,-0.0155,-0.0243,-0.0258,-0.0311,-0.0273,-0.0452,-0.0455,-0.0458,-0.0463,-0.0468,-0.0472,0,0,0,0,0,0.0417,0.0408,0.0285,0.0313,0.0292,0.0169,0.0161,0.0137,0.0087,-0.0026,-0.0051,0.0018,-0.0152,-0.0172,-0.0252,-0.0303,-0.0263,-0.0268,-0.0454,-0.0456,-0.0459,-0.0465,0,0,0,0,0,0,0.0413,0.0361,0.0277,0.0265,0.0305,0.0167,0.0146,0.0139,-0.0011,-0.0034,0.0041,0.0032,-0.015,-0.0166,-0.018,-0.0299,-0.0254,-0.026,-0.0264,-0.0456,-0.0458,-0.0459,0,0,0,0,0,0,0.0366,0.0353,0.027,0.0266,0.0252,0.0166,0.0148,0.0098,-0.0011,0.0062,0.0051,0.0039,-0.0116,-0.0161,-0.0173,-0.025,-0.0248,-0.0253,-0.0257,-0.0259,-0.0457,-0.0459,0,0,0,0,0,0,0.0357,0.0346,0.0268,0.0257,0.0245,0.0095,0.0118,0.0023,-0.0022,0.007,-0.0026,-0.0028,-0.0108,-0.0123,-0.0167,-0.0239,-0.0247,-0.0248,-0.0252,-0.0254,-0.0256,0,0,0,0,0,0,0,0.035,0.0465,0.0358,0.025,0.0239,0.0155,0.015,0.0146,-0.0022,-0.0024,-0.0026,-0.0027,-0.0217,-0.0223,-0.0229,-0.023,0,0,-0.0248,-0.025,0,0,0,0,0,0,0,0,0.0466,0.0465,0.0358,0.0356,0.0354,0.0154,0.0151,0.0147,-0.0022,-0.0024,-0.0025,-0.0027,-0.0219,-0.0224,-0.0228,0,0,0,0,0,0,0,0,0,0,0,0,0,0,0,0.0357,0.0356,0,0.0154,0.0151,0.0148,-0.0023,-0.0024,-0.0025,-0.0026,-0.022,-0.0224,-0.0228,0,0,0,0,0,0,0,0,0,0,0,0,0,0,0,0,0,0,0,0,0,0,0,0,0,0,0,0,0,0,0,0,0,0,0,0,0,0,0,0,0,0,0,0,0,0,0,0,0,0,0,0,0,0,0,0,0,0,0,0,0,0,0,0,0,0,0,0,0]}]]]